Weather Service Report


946 
ASUS41 KRLX 070110
RWRRLX
West Virginia Regional Weather Roundup
National Weather Service Charleston WV
800 PM EST SAT FEB 06 2016

Note: "fair" indicates few or no clouds below 12,000 feet with no
significant weather and/or obstructions to visibility.

WVZ003-070200-
Northern Panhandle of West Virginia
  
CITY           SKY/WX    TMP DP  RH WIND       PRES   REMARKS
WHEELING         N/A     36   9  32 SW5       30.22S                  
$$

WVZ009-070200-
Northwest West Virginia
  
CITY           SKY/WX    TMP DP  RH WIND       PRES   REMARKS
PARKERSBURG      N/A     33  15  47 S5        30.28S HAZE             
$$

WVZ006-070200-
Western West Virginia
  
CITY           SKY/WX    TMP DP  RH WIND       PRES   REMARKS
HUNTINGTON     MOCLDY    43  22  43 N3        30.26S                  
$$

WVZ015-070200-
West Central West Virginia
  
CITY           SKY/WX    TMP DP  RH WIND       PRES   REMARKS
CHARLESTON     CLOUDY    42  20  41 CALM      30.25S                  
$$

WVZ022-031-070200-
North Central West Virginia
  
CITY           SKY/WX    TMP DP  RH WIND       PRES   REMARKS
CLARKSBURG       N/A     38  16  40 CALM      30.24R                  
MORGANTOWN       N/A     39  11  31 CALM      30.25R                  
$$

WVZ025-035-042-045-070200-
Southern West Virginia
  
CITY           SKY/WX    TMP DP  RH WIND       PRES   REMARKS
BECKLEY          N/A     36  16  44 SW5       30.23S                  
LOGAN          MOCLDY    43  18  36 SW3       30.24S                  
BLUEFIELD        N/A     32  15  49 W5        30.23S                  
LEWISBURG        N/A     38  19  46 CALM      30.23S                  
$$

WVZ047-070200-
Northern Mountains of West Virginia
  
CITY           SKY/WX    TMP DP  RH WIND       PRES   REMARKS
ELKINS           N/A     29  18  63 CALM      30.23R                  
$$

WVZ052-070200-
Eastern Panhandle of West Virginia
  
CITY           SKY/WX    TMP DP  RH WIND       PRES   REMARKS
MARTINSBURG      N/A     34  18  52 SW3       30.26R                  
PETERSBURG       N/A     33  25  75 CALM      30.26R                  
$$
  

Return to Home page


Western Regional Climate Center, wrcc@dri.edu